Location: La Chapelle
(48.3135°N, 1.3085°W)
Time: 07:03:28
(UTC+00:00)

USA 305 - Pass Details

Date: 03 March 2021
Orbit: 567 x 574 km, 54.0° (Epoch: 13 April)

Event Time Altitude Azimuth Distance (km) Brightness Sun altitude
Rises 19:43:36 0° 286° (WNW) 2,780 8.1 -19.2°
Reaches altitude 10° 19:45:59 10° 295° (WNW) 1,881 6.7 -19.5°
Maximum altitude 19:49:59 38° 4° (N) 878 3.9 -20.2°
Enters shadow 19:51:05 32° 39° (NE) 987 3.8 -20.4°
